TimePDT,TemperatureF,Dew PointF,Humidity,Sea Level PressureIn,VisibilityMPH,Wind Direction,Wind SpeedMPH,Gust SpeedMPH,PrecipitationIn,Events,Conditions,WindDirDegrees,DateUTC
12:53 AM,64.0,57.0,78,29.87,10.0,SSW,8.1,-,N/A,,Clear,200,2013-08-26 07:53:00
1:53 AM,63.0,57.0,81,29.89,10.0,SE,9.2,-,N/A,,Clear,140,2013-08-26 08:53:00
2:53 AM,64.0,57.0,78,29.90,10.0,SE,4.6,-,N/A,,Clear,140,2013-08-26 09:53:00
3:53 AM,64.0,57.9,80,29.91,10.0,South,6.9,-,N/A,,Clear,170,2013-08-26 10:53:00
4:53 AM,63.0,57.9,84,29.92,10.0,South,8.1,-,N/A,,Clear,170,2013-08-26 11:53:00
5:53 AM,63.0,57.9,84,29.92,10.0,SSE,5.8,-,N/A,,Clear,160,2013-08-26 12:53:00
6:53 AM,62.1,57.9,86,29.94,10.0,ENE,3.5,-,0.00,,Clear,70,2013-08-26 13:53:00
7:53 AM,63.0,57.0,81,29.94,10.0,SE,8.1,-,N/A,,Clear,130,2013-08-26 14:53:00
8:53 AM,68.0,57.0,68,29.94,10.0,SE,4.6,-,N/A,,Scattered Clouds,130,2013-08-26 15:53:00
9:53 AM,70.0,57.0,63,29.93,10.0,Calm,Calm,-,N/A,,Clear,0,2013-08-26 16:53:00
10:53 AM,72.0,57.9,61,29.92,10.0,East,3.5,-,N/A,,Scattered Clouds,80,2013-08-26 17:53:00
11:53 AM,73.9,57.0,55,29.90,10.0,Calm,Calm,-,N/A,,Clear,0,2013-08-26 18:53:00
12:53 PM,75.9,57.0,52,29.89,10.0,Calm,Calm,-,N/A,,Clear,0,2013-08-26 19:53:00
1:53 PM,81.0,57.9,45,29.87,10.0,North,8.1,-,N/A,,Scattered Clouds,10,2013-08-26 20:53:00
2:53 PM,77.0,60.1,56,29.86,10.0,North,6.9,-,N/A,,Clear,360,2013-08-26 21:53:00
3:53 PM,82.0,55.9,41,29.85,10.0,Variable,4.6,-,N/A,,Clear,0,2013-08-26 22:53:00
4:53 PM,84.0,55.0,37,29.84,10.0,North,4.6,-,N/A,,Partly Cloudy,10,2013-08-26 23:53:00
5:53 PM,82.9,55.9,39,29.85,10.0,East,8.1,-,N/A,,Clear,90,2013-08-27 00:53:00
6:53 PM,81.0,55.0,41,29.84,10.0,East,5.8,-,N/A,,Clear,100,2013-08-27 01:53:00
7:53 PM,79.0,55.9,45,29.85,10.0,SE,6.9,-,N/A,,Clear,140,2013-08-27 02:53:00
8:53 PM,75.9,57.9,54,29.87,10.0,SW,4.6,-,N/A,,Clear,230,2013-08-27 03:53:00
9:53 PM,72.0,57.9,61,29.88,10.0,Calm,Calm,-,N/A,,Clear,0,2013-08-27 04:53:00
10:53 PM,66.9,57.0,70,29.90,10.0,NNE,3.5,-,N/A,,Clear,20,2013-08-27 05:53:00
11:53 PM,66.0,57.9,75,29.91,10.0,Calm,Calm,-,N/A,,Partly Cloudy,0,2013-08-27 06:53:00